Date_Time,Julian_Date,Latitude,Longitude,Instrument_Depth,U,V,Speed,Direction
(yyyy-mm-dd hh:mn:ss UTC),(JD),(+ deg. North),(+ deg. East),(m),(cm/s),(cm/s),(cm/s),(deg True)
1981-11-18 18:00:00 UTC,2444927.250000,29.4519,-93.4333,0107,-5.35,-2.72,6.0000,243.0000
1981-11-18 18:30:00 UTC,2444927.270833,29.4519,-93.4333,0107,-6.58,-2.39,7.0000,250.0000
1981-11-18 19:00:00 UTC,2444927.291667,29.4519,-93.4333,0107,-6.73,-1.93,7.0000,254.0000
1981-11-18 19:30:00 UTC,2444927.312500,29.4519,-93.4333,0107,-5.89,-1.14,6.0000,259.0000
1981-11-18 20:00:00 UTC,2444927.333333,29.4519,-93.4333,0107,-5.99,-0.31,6.0000,267.0000
1981-11-18 20:30:00 UTC,2444927.354167,29.4519,-93.4333,0107,-6.96,0.73,7.0000,276.0000
1981-11-18 21:00:00 UTC,2444927.375000,29.4519,-93.4333,0107,-7.65,2.34,8.0000,287.0000
1981-11-18 21:30:00 UTC,2444927.395833,29.4519,-93.4333,0107,-7.13,3.63,8.0000,297.0000
1981-11-18 22:00:00 UTC,2444927.416667,29.4519,-93.4333,0107,-7.09,5.54,9.0000,308.0000
1981-11-18 22:30:00 UTC,2444927.437500,29.4519,-93.4333,0107,-6.02,6.69,9.0000,318.0000
1981-11-18 23:00:00 UTC,2444927.458333,29.4519,-93.4333,0107,-5.29,7.28,9.0000,324.0000
1981-11-18 23:30:00 UTC,2444927.479167,29.4519,-93.4333,0107,-4.90,7.55,9.0000,327.0000
1981-11-19 00:00:00 UTC,2444927.500000,29.4519,-93.4333,0107,-4.59,6.55,8.0000,325.0000
1981-11-19 00:30:00 UTC,2444927.520833,29.4519,-93.4333,0107,-4.59,5.28,7.0000,319.0000
1981-11-19 01:00:00 UTC,2444927.541667,29.4519,-93.4333,0107,-4.66,3.78,6.0000,309.0000
1981-11-19 01:30:00 UTC,2444927.562500,29.4519,-93.4333,0107,-4.53,2.11,5.0000,295.0000
1981-11-19 02:00:00 UTC,2444927.583333,29.4519,-93.4333,0107,-4.92,0.87,5.0000,280.0000
1981-11-19 02:30:00 UTC,2444927.604167,29.4519,-93.4333,0107,-4.98,-0.44,5.0000,265.0000
1981-11-19 03:00:00 UTC,2444927.625000,29.4519,-93.4333,0107,-6.76,-1.81,7.0000,255.0000
1981-11-19 03:30:00 UTC,2444927.645833,29.4519,-93.4333,0107,-7.47,-2.87,8.0000,249.0000
1981-11-19 04:00:00 UTC,2444927.666667,29.4519,-93.4333,0107,-8.99,-4.38,10.0000,244.0000
1981-11-19 04:30:00 UTC,2444927.687500,29.4519,-93.4333,0107,-9.71,-5.16,11.0000,242.0000
1981-11-19 05:00:00 UTC,2444927.708333,29.4519,-93.4333,0107,-9.80,-4.99,11.0000,243.0000
1981-11-19 05:30:00 UTC,2444927.729167,29.4519,-93.4333,0107,-9.80,-4.99,11.0000,243.0000
1981-11-19 06:00:00 UTC,2444927.750000,29.4519,-93.4333,0107,-9.71,-5.16,11.0000,242.0000
1981-11-19 06:30:00 UTC,2444927.770833,29.4519,-93.4333,0107,-10.50,-5.82,12.0000,241.0000
1981-11-19 07:00:00 UTC,2444927.791667,29.4519,-93.4333,0107,-11.37,-6.30,13.0000,241.0000
1981-11-19 07:30:00 UTC,2444927.812500,29.4519,-93.4333,0107,-11.58,-5.90,13.0000,243.0000
1981-11-19 08:00:00 UTC,2444927.833333,29.4519,-93.4333,0107,-11.78,-5.49,13.0000,245.0000
1981-11-19 08:30:00 UTC,2444927.854167,29.4519,-93.4333,0107,-11.78,-5.49,13.0000,245.0000
1981-11-19 09:00:00 UTC,2444927.875000,29.4519,-93.4333,0107,-9.71,-5.16,11.0000,242.0000
1981-11-19 09:30:00 UTC,2444927.895833,29.4519,-93.4333,0107,-8.66,-5.00,10.0000,240.0000
1981-11-19 10:00:00 UTC,2444927.916667,29.4519,-93.4333,0107,-8.66,-5.00,10.0000,240.0000
1981-11-19 10:30:00 UTC,2444927.937500,29.4519,-93.4333,0107,-8.75,-4.85,10.0000,241.0000
1981-11-19 11:00:00 UTC,2444927.958333,29.4519,-93.4333,0107,-9.06,-4.23,10.0000,245.0000
1981-11-19 11:30:00 UTC,2444927.979167,29.4519,-93.4333,0107,-8.61,-2.63,9.0000,253.0000
1981-11-19 12:00:00 UTC,2444928.000000,29.4519,-93.4333,0107,-8.86,-1.56,9.0000,260.0000
1981-11-19 12:30:00 UTC,2444928.020833,29.4519,-93.4333,0107,-7.92,-1.11,8.0000,262.0000
1981-11-19 13:00:00 UTC,2444928.041667,29.4519,-93.4333,0107,-7.88,-1.39,8.0000,260.0000
1981-11-19 13:30:00 UTC,2444928.062500,29.4519,-93.4333,0107,-7.69,-2.21,8.0000,254.0000
1981-11-19 14:00:00 UTC,2444928.083333,29.4519,-93.4333,0107,-7.52,-2.74,8.0000,250.0000
1981-11-19 14:30:00 UTC,2444928.104167,29.4519,-93.4333,0107,-7.47,-2.87,8.0000,249.0000
1981-11-19 15:00:00 UTC,2444928.125000,29.4519,-93.4333,0107,-7.47,-2.87,8.0000,249.0000
1981-11-19 15:30:00 UTC,2444928.145833,29.4519,-93.4333,0107,-7.36,-3.13,8.0000,247.0000
1981-11-19 16:00:00 UTC,2444928.166667,29.4519,-93.4333,0107,-6.34,-2.96,7.0000,245.0000
1981-11-19 16:30:00 UTC,2444928.187500,29.4519,-93.4333,0107,-5.48,-2.44,6.0000,246.0000
1981-11-19 17:00:00 UTC,2444928.208333,29.4519,-93.4333,0107,-5.64,-2.05,6.0000,250.0000
1981-11-19 17:30:00 UTC,2444928.229167,29.4519,-93.4333,0107,-5.64,-2.05,6.0000,250.0000
1981-11-19 18:00:00 UTC,2444928.250000,29.4519,-93.4333,0107,-5.52,-2.34,6.0000,247.0000
1981-11-19 18:30:00 UTC,2444928.270833,29.4519,-93.4333,0107,-5.30,-2.82,6.0000,242.0000
1981-11-19 19:00:00 UTC,2444928.291667,29.4519,-93.4333,0107,-5.94,-3.71,7.0000,238.0000
1981-11-19 19:30:00 UTC,2444928.312500,29.4519,-93.4333,0107,-5.03,-3.27,6.0000,237.0000
1981-11-19 20:00:00 UTC,2444928.333333,29.4519,-93.4333,0107,-4.57,-2.03,5.0000,246.0000
1981-11-19 20:30:00 UTC,2444928.354167,29.4519,-93.4333,0107,-3.98,-0.42,4.0000,264.0000
1981-11-19 21:00:00 UTC,2444928.375000,29.4519,-93.4333,0107,-2.65,1.41,3.0000,298.0000
1981-11-19 21:30:00 UTC,2444928.395833,29.4519,-93.4333,0107,-1.88,3.53,4.0000,332.0000
1981-11-19 22:00:00 UTC,2444928.416667,29.4519,-93.4333,0107,-2.07,7.73,8.0000,345.0000
1981-11-19 22:30:00 UTC,2444928.437500,29.4519,-93.4333,0107,-0.21,12.00,12.0000,359.0000
1981-11-19 23:00:00 UTC,2444928.458333,29.4519,-93.4333,0107,2.19,13.83,14.0000,9.0000
1981-11-19 23:30:00 UTC,2444928.479167,29.4519,-93.4333,0107,3.39,13.58,14.0000,14.0000
1981-11-20 00:00:00 UTC,2444928.500000,29.4519,-93.4333,0107,3.36,12.56,13.0000,15.0000
1981-11-20 00:30:00 UTC,2444928.520833,29.4519,-93.4333,0107,3.86,13.46,14.0000,16.0000
1981-11-20 01:00:00 UTC,2444928.541667,29.4519,-93.4333,0107,4.11,16.50,17.0000,14.0000
1981-11-20 01:30:00 UTC,2444928.562500,29.4519,-93.4333,0107,4.57,21.52,22.0000,12.0000
1981-11-20 02:00:00 UTC,2444928.583333,29.4519,-93.4333,0107,5.85,25.33,26.0000,13.0000
1981-11-20 02:30:00 UTC,2444928.604167,29.4519,-93.4333,0107,7.02,22.95,24.0000,17.0000
1981-11-20 03:00:00 UTC,2444928.625000,29.4519,-93.4333,0107,7.18,19.73,21.0000,20.0000
1981-11-20 03:30:00 UTC,2444928.645833,29.4519,-93.4333,0107,7.81,18.41,20.0000,23.0000
1981-11-20 04:00:00 UTC,2444928.666667,29.4519,-93.4333,0107,7.32,16.44,18.0000,24.0000
1981-11-20 04:30:00 UTC,2444928.687500,29.4519,-93.4333,0107,7.61,16.31,18.0000,25.0000
1981-11-20 05:00:00 UTC,2444928.708333,29.4519,-93.4333,0107,8.13,18.27,20.0000,24.0000
1981-11-20 05:30:00 UTC,2444928.729167,29.4519,-93.4333,0107,8.99,21.17,23.0000,23.0000
1981-11-20 06:00:00 UTC,2444928.750000,29.4519,-93.4333,0107,9.35,21.01,23.0000,24.0000
1981-11-20 06:30:00 UTC,2444928.770833,29.4519,-93.4333,0107,10.50,18.19,21.0000,30.0000
1981-11-20 07:00:00 UTC,2444928.791667,29.4519,-93.4333,0107,10.47,13.40,17.0000,38.0000
1981-11-20 07:30:00 UTC,2444928.812500,29.4519,-93.4333,0107,12.04,13.38,18.0000,42.0000
1981-11-20 08:00:00 UTC,2444928.833333,29.4519,-93.4333,0107,13.64,14.63,20.0000,43.0000
1981-11-20 08:30:00 UTC,2444928.854167,29.4519,-93.4333,0107,13.89,14.39,20.0000,44.0000
1981-11-20 09:00:00 UTC,2444928.875000,29.4519,-93.4333,0107,12.50,12.95,18.0000,44.0000
1981-11-20 09:30:00 UTC,2444928.895833,29.4519,-93.4333,0107,12.47,14.34,19.0000,41.0000
1981-11-20 10:00:00 UTC,2444928.916667,29.4519,-93.4333,0107,13.50,16.09,21.0000,40.0000
1981-11-20 10:30:00 UTC,2444928.937500,29.4519,-93.4333,0107,14.59,15.11,21.0000,44.0000
1981-11-20 11:00:00 UTC,2444928.958333,29.4519,-93.4333,0107,15.32,12.86,20.0000,50.0000
1981-11-20 11:30:00 UTC,2444928.979167,29.4519,-93.4333,0107,13.99,11.33,18.0000,51.0000
1981-11-20 12:00:00 UTC,2444929.000000,29.4519,-93.4333,0107,12.61,9.85,16.0000,52.0000
1981-11-20 12:30:00 UTC,2444929.020833,29.4519,-93.4333,0107,10.18,6.36,12.0000,58.0000
1981-11-20 13:00:00 UTC,2444929.041667,29.4519,-93.4333,0107,8.22,3.66,9.0000,66.0000
1981-11-20 13:30:00 UTC,2444929.062500,29.4519,-93.4333,0107,7.31,3.25,8.0000,66.0000
1981-11-20 14:00:00 UTC,2444929.083333,29.4519,-93.4333,0107,6.34,2.96,7.0000,65.0000
1981-11-20 14:30:00 UTC,2444929.104167,29.4519,-93.4333,0107,6.66,2.16,7.0000,72.0000
1981-11-20 15:00:00 UTC,2444929.125000,29.4519,-93.4333,0107,7.88,1.39,8.0000,80.0000
1981-11-20 15:30:00 UTC,2444929.145833,29.4519,-93.4333,0107,9.88,1.56,10.0000,81.0000
1981-11-20 16:00:00 UTC,2444929.166667,29.4519,-93.4333,0107,11.69,2.70,12.0000,77.0000
1981-11-20 16:30:00 UTC,2444929.187500,29.4519,-93.4333,0107,12.61,3.14,13.0000,76.0000
1981-11-20 17:00:00 UTC,2444929.208333,29.4519,-93.4333,0107,12.67,2.92,13.0000,77.0000
1981-11-20 17:30:00 UTC,2444929.229167,29.4519,-93.4333,0107,11.64,2.90,12.0000,76.0000
1981-11-20 18:00:00 UTC,2444929.250000,29.4519,-93.4333,0107,11.54,3.31,12.0000,74.0000
1981-11-20 18:30:00 UTC,2444929.270833,29.4519,-93.4333,0107,11.41,3.71,12.0000,72.0000
1981-11-20 19:00:00 UTC,2444929.291667,29.4519,-93.4333,0107,13.91,5.62,15.0000,68.0000
1981-11-20 19:30:00 UTC,2444929.312500,29.4519,-93.4333,0107,16.31,7.61,18.0000,65.0000
1981-11-20 20:00:00 UTC,2444929.333333,29.4519,-93.4333,0107,18.37,10.18,21.0000,61.0000
1981-11-20 20:30:00 UTC,2444929.354167,29.4519,-93.4333,0107,17.14,10.30,20.0000,59.0000
1981-11-20 21:00:00 UTC,2444929.375000,29.4519,-93.4333,0107,15.10,9.80,18.0000,57.0000
1981-11-20 21:30:00 UTC,2444929.395833,29.4519,-93.4333,0107,14.09,9.51,17.0000,56.0000
1981-11-20 22:00:00 UTC,2444929.416667,29.4519,-93.4333,0107,13.26,8.95,16.0000,56.0000
1981-11-20 22:30:00 UTC,2444929.437500,29.4519,-93.4333,0107,13.26,8.95,16.0000,56.0000
1981-11-20 23:00:00 UTC,2444929.458333,29.4519,-93.4333,0107,14.26,9.26,17.0000,57.0000
1981-11-20 23:30:00 UTC,2444929.479167,29.4519,-93.4333,0107,14.26,9.26,17.0000,57.0000
1981-11-21 00:00:00 UTC,2444929.500000,29.4519,-93.4333,0107,13.93,9.75,17.0000,55.0000
1981-11-21 00:30:00 UTC,2444929.520833,29.4519,-93.4333,0107,13.58,10.23,17.0000,53.0000
1981-11-21 01:00:00 UTC,2444929.541667,29.4519,-93.4333,0107,14.56,10.58,18.0000,54.0000
1981-11-21 01:30:00 UTC,2444929.562500,29.4519,-93.4333,0107,15.26,9.54,18.0000,58.0000
1981-11-21 02:00:00 UTC,2444929.583333,29.4519,-93.4333,0107,14.13,7.51,16.0000,62.0000
1981-11-21 02:30:00 UTC,2444929.604167,29.4519,-93.4333,0107,12.79,5.69,14.0000,66.0000
1981-11-21 03:00:00 UTC,2444929.625000,29.4519,-93.4333,0107,11.20,4.30,12.0000,69.0000
1981-11-21 03:30:00 UTC,2444929.645833,29.4519,-93.4333,0107,10.52,3.22,11.0000,73.0000
1981-11-21 04:00:00 UTC,2444929.666667,29.4519,-93.4333,0107,11.69,2.70,12.0000,77.0000
1981-11-21 04:30:00 UTC,2444929.687500,29.4519,-93.4333,0107,12.76,2.48,13.0000,79.0000
1981-11-21 05:00:00 UTC,2444929.708333,29.4519,-93.4333,0107,12.76,2.48,13.0000,79.0000
1981-11-21 05:30:00 UTC,2444929.729167,29.4519,-93.4333,0107,11.82,2.08,12.0000,80.0000
1981-11-21 06:00:00 UTC,2444929.750000,29.4519,-93.4333,0107,9.93,1.22,10.0000,83.0000
1981-11-21 06:30:00 UTC,2444929.770833,29.4519,-93.4333,0107,11.00,-0.19,11.0000,91.0000
1981-11-21 07:00:00 UTC,2444929.791667,29.4519,-93.4333,0107,11.74,-2.49,12.0000,102.0000
1981-11-21 07:30:00 UTC,2444929.812500,29.4519,-93.4333,0107,12.14,-4.66,13.0000,111.0000
1981-11-21 08:00:00 UTC,2444929.833333,29.4519,-93.4333,0107,11.78,-5.49,13.0000,115.0000
1981-11-21 08:30:00 UTC,2444929.854167,29.4519,-93.4333,0107,10.60,-5.63,12.0000,118.0000
1981-11-21 09:00:00 UTC,2444929.875000,29.4519,-93.4333,0107,9.53,-5.50,11.0000,120.0000
1981-11-21 09:30:00 UTC,2444929.895833,29.4519,-93.4333,0107,8.83,-4.69,10.0000,118.0000
1981-11-21 10:00:00 UTC,2444929.916667,29.4519,-93.4333,0107,8.34,-3.37,9.0000,112.0000
1981-11-21 10:30:00 UTC,2444929.937500,29.4519,-93.4333,0107,9.56,-2.92,10.0000,107.0000
1981-11-21 11:00:00 UTC,2444929.958333,29.4519,-93.4333,0107,9.70,-2.42,10.0000,104.0000
1981-11-21 11:30:00 UTC,2444929.979167,29.4519,-93.4333,0107,9.78,-2.08,10.0000,102.0000
1981-11-21 12:00:00 UTC,2444930.000000,29.4519,-93.4333,0107,9.88,-1.56,10.0000,99.0000
1981-11-21 12:30:00 UTC,2444930.020833,29.4519,-93.4333,0107,9.95,-1.05,10.0000,96.0000
1981-11-21 13:00:00 UTC,2444930.041667,29.4519,-93.4333,0107,8.00,-0.14,8.0000,91.0000
1981-11-21 13:30:00 UTC,2444930.062500,29.4519,-93.4333,0107,7.96,0.84,8.0000,84.0000
1981-11-21 14:00:00 UTC,2444930.083333,29.4519,-93.4333,0107,6.89,1.22,7.0000,80.0000
1981-11-21 14:30:00 UTC,2444930.104167,29.4519,-93.4333,0107,5.85,1.35,6.0000,77.0000
1981-11-21 15:00:00 UTC,2444930.125000,29.4519,-93.4333,0107,5.89,1.14,6.0000,79.0000
1981-11-21 15:30:00 UTC,2444930.145833,29.4519,-93.4333,0107,4.92,0.87,5.0000,80.0000
1981-11-21 16:00:00 UTC,2444930.166667,29.4519,-93.4333,0107,4.85,1.21,5.0000,76.0000
1981-11-21 16:30:00 UTC,2444930.187500,29.4519,-93.4333,0107,3.88,0.97,4.0000,76.0000
1981-11-21 17:00:00 UTC,2444930.208333,29.4519,-93.4333,0107,2.99,-0.26,3.0000,95.0000
1981-11-21 17:30:00 UTC,2444930.229167,29.4519,-93.4333,0107,3.32,-2.24,4.0000,124.0000
1981-11-21 18:00:00 UTC,2444930.250000,29.4519,-93.4333,0107,2.65,-4.24,5.0000,148.0000
1981-11-21 18:30:00 UTC,2444930.270833,29.4519,-93.4333,0107,1.57,-6.82,7.0000,167.0000
1981-11-21 19:00:00 UTC,2444930.291667,29.4519,-93.4333,0107,0.35,-9.99,10.0000,178.0000
1981-11-21 19:30:00 UTC,2444930.312500,29.4519,-93.4333,0107,-1.58,-12.90,13.0000,187.0000
1981-11-21 20:00:00 UTC,2444930.333333,29.4519,-93.4333,0107,-2.91,-13.69,14.0000,192.0000
1981-11-21 20:30:00 UTC,2444930.354167,29.4519,-93.4333,0107,-2.48,-12.76,13.0000,191.0000
1981-11-21 21:00:00 UTC,2444930.375000,29.4519,-93.4333,0107,-2.08,-11.82,12.0000,190.0000
1981-11-21 21:30:00 UTC,2444930.395833,29.4519,-93.4333,0107,-2.76,-9.61,10.0000,196.0000
1981-11-21 22:00:00 UTC,2444930.416667,29.4519,-93.4333,0107,-3.38,-7.25,8.0000,205.0000
1981-11-21 22:30:00 UTC,2444930.437500,29.4519,-93.4333,0107,-3.91,-5.80,7.0000,214.0000
1981-11-21 23:00:00 UTC,2444930.458333,29.4519,-93.4333,0107,-3.72,-3.35,5.0000,228.0000
1981-11-21 23:30:00 UTC,2444930.479167,29.4519,-93.4333,0107,-2.99,-0.26,3.0000,265.0000
1981-11-22 00:00:00 UTC,2444930.500000,29.4519,-93.4333,0107,-3.19,2.41,4.0000,307.0000
1981-11-22 00:30:00 UTC,2444930.520833,29.4519,-93.4333,0107,-3.54,3.54,5.0000,315.0000
1981-11-22 01:00:00 UTC,2444930.541667,29.4519,-93.4333,0107,-3.60,3.47,5.0000,314.0000
1981-11-22 01:30:00 UTC,2444930.562500,29.4519,-93.4333,0107,-3.06,2.57,4.0000,310.0000
1981-11-22 02:00:00 UTC,2444930.583333,29.4519,-93.4333,0107,-2.60,1.50,3.0000,300.0000
1981-11-22 02:30:00 UTC,2444930.604167,29.4519,-93.4333,0107,-3.80,1.24,4.0000,288.0000
1981-11-22 03:00:00 UTC,2444930.625000,29.4519,-93.4333,0107,-3.96,0.56,4.0000,278.0000
1981-11-22 03:30:00 UTC,2444930.645833,29.4519,-93.4333,0107,-3.96,-0.56,4.0000,262.0000
1981-11-22 04:00:00 UTC,2444930.666667,29.4519,-93.4333,0107,-4.41,-2.35,5.0000,242.0000
1981-11-22 04:30:00 UTC,2444930.687500,29.4519,-93.4333,0107,-5.20,-4.68,7.0000,228.0000
1981-11-22 05:00:00 UTC,2444930.708333,29.4519,-93.4333,0107,-6.02,-6.69,9.0000,222.0000
1981-11-22 05:30:00 UTC,2444930.729167,29.4519,-93.4333,0107,-7.07,-8.43,11.0000,220.0000
1981-11-22 06:00:00 UTC,2444930.750000,29.4519,-93.4333,0107,-7.87,-9.06,12.0000,221.0000
1981-11-22 06:30:00 UTC,2444930.770833,29.4519,-93.4333,0107,-8.03,-8.92,12.0000,222.0000
1981-11-22 07:00:00 UTC,2444930.791667,29.4519,-93.4333,0107,-7.71,-9.19,12.0000,220.0000
1981-11-22 07:30:00 UTC,2444930.812500,29.4519,-93.4333,0107,-7.46,-10.65,13.0000,215.0000
1981-11-22 08:00:00 UTC,2444930.833333,29.4519,-93.4333,0107,-7.83,-11.61,14.0000,214.0000
1981-11-22 08:30:00 UTC,2444930.854167,29.4519,-93.4333,0107,-7.64,-10.52,13.0000,216.0000
1981-11-22 09:00:00 UTC,2444930.875000,29.4519,-93.4333,0107,-5.03,-7.46,9.0000,214.0000
1981-11-22 09:30:00 UTC,2444930.895833,29.4519,-93.4333,0107,-1.95,-4.60,5.0000,203.0000
1981-11-22 10:00:00 UTC,2444930.916667,29.4519,-93.4333,0107,0.05,-3.00,3.0000,179.0000
1981-11-22 10:30:00 UTC,2444930.937500,29.4519,-93.4333,0107,1.12,-2.78,3.0000,158.0000
1981-11-22 11:00:00 UTC,2444930.958333,29.4519,-93.4333,0107,1.29,-1.53,2.0000,140.0000
1981-11-22 11:30:00 UTC,2444930.979167,29.4519,-93.4333,0107,1.00,-0.07,1.0000,94.0000
1981-11-22 12:00:00 UTC,2444931.000000,29.4519,-93.4333,0107,0.07,2.00,2.0000,2.0000
1981-11-22 12:30:00 UTC,2444931.020833,29.4519,-93.4333,0107,-0.63,3.95,4.0000,351.0000
1981-11-22 13:00:00 UTC,2444931.041667,29.4519,-93.4333,0107,-1.85,5.71,6.0000,342.0000
1981-11-22 13:30:00 UTC,2444931.062500,29.4519,-93.4333,0107,-3.27,5.03,6.0000,327.0000
1981-11-22 14:00:00 UTC,2444931.083333,29.4519,-93.4333,0107,-4.79,3.61,6.0000,307.0000
1981-11-22 14:30:00 UTC,2444931.104167,29.4519,-93.4333,0107,-5.60,2.15,6.0000,291.0000
1981-11-22 15:00:00 UTC,2444931.125000,29.4519,-93.4333,0107,-6.89,1.22,7.0000,280.0000
1981-11-22 15:30:00 UTC,2444931.145833,29.4519,-93.4333,0107,-6.97,-0.61,7.0000,265.0000
1981-11-22 16:00:00 UTC,2444931.166667,29.4519,-93.4333,0107,-7.65,-2.34,8.0000,253.0000
1981-11-22 16:30:00 UTC,2444931.187500,29.4519,-93.4333,0107,-10.20,-4.12,11.0000,248.0000
1981-11-22 17:00:00 UTC,2444931.208333,29.4519,-93.4333,0107,-10.96,-4.88,12.0000,246.0000
1981-11-22 17:30:00 UTC,2444931.229167,29.4519,-93.4333,0107,-10.69,-5.45,12.0000,243.0000
1981-11-22 18:00:00 UTC,2444931.250000,29.4519,-93.4333,0107,-9.53,-5.50,11.0000,240.0000
1981-11-22 18:30:00 UTC,2444931.270833,29.4519,-93.4333,0107,-9.62,-5.33,11.0000,241.0000
1981-11-22 19:00:00 UTC,2444931.291667,29.4519,-93.4333,0107,-9.62,-5.33,11.0000,241.0000
1981-11-22 19:30:00 UTC,2444931.312500,29.4519,-93.4333,0107,-10.38,-7.82,13.0000,233.0000
1981-11-22 20:00:00 UTC,2444931.333333,29.4519,-93.4333,0107,-10.24,-9.55,14.0000,227.0000
1981-11-22 20:30:00 UTC,2444931.354167,29.4519,-93.4333,0107,-10.72,-9.00,14.0000,230.0000
1981-11-22 21:00:00 UTC,2444931.375000,29.4519,-93.4333,0107,-12.86,-7.73,15.0000,239.0000
1981-11-22 21:30:00 UTC,2444931.395833,29.4519,-93.4333,0107,-14.50,-6.76,16.0000,245.0000
1981-11-22 22:00:00 UTC,2444931.416667,29.4519,-93.4333,0107,-13.81,-5.86,15.0000,247.0000
1981-11-22 22:30:00 UTC,2444931.437500,29.4519,-93.4333,0107,-12.36,-4.02,13.0000,252.0000
1981-11-22 23:00:00 UTC,2444931.458333,29.4519,-93.4333,0107,-12.95,-1.13,13.0000,265.0000
1981-11-22 23:30:00 UTC,2444931.479167,29.4519,-93.4333,0107,-11.97,0.84,12.0000,274.0000
1981-11-23 00:00:00 UTC,2444931.500000,29.4519,-93.4333,0107,-9.96,0.87,10.0000,275.0000
1981-11-23 00:30:00 UTC,2444931.520833,29.4519,-93.4333,0107,-9.95,1.05,10.0000,276.0000
1981-11-23 01:00:00 UTC,2444931.541667,29.4519,-93.4333,0107,-10.89,1.53,11.0000,278.0000
1981-11-23 01:30:00 UTC,2444931.562500,29.4519,-93.4333,0107,-12.84,2.03,13.0000,279.0000
1981-11-23 02:00:00 UTC,2444931.583333,29.4519,-93.4333,0107,-13.69,2.91,14.0000,282.0000
1981-11-23 02:30:00 UTC,2444931.604167,29.4519,-93.4333,0107,-13.31,4.33,14.0000,288.0000
1981-11-23 03:00:00 UTC,2444931.625000,29.4519,-93.4333,0107,-11.97,5.08,13.0000,293.0000
1981-11-23 03:30:00 UTC,2444931.645833,29.4519,-93.4333,0107,-9.56,2.92,10.0000,287.0000
1981-11-23 04:00:00 UTC,2444931.666667,29.4519,-93.4333,0107,-8.99,-0.31,9.0000,268.0000
1981-11-23 04:30:00 UTC,2444931.687500,29.4519,-93.4333,0107,-10.92,-1.34,11.0000,263.0000
1981-11-23 05:00:00 UTC,2444931.708333,29.4519,-93.4333,0107,-13.92,-1.46,14.0000,264.0000
1981-11-23 05:30:00 UTC,2444931.729167,29.4519,-93.4333,0107,-13.83,-2.19,14.0000,261.0000
1981-11-23 06:00:00 UTC,2444931.750000,29.4519,-93.4333,0107,-12.72,-2.70,13.0000,258.0000
1981-11-23 06:30:00 UTC,2444931.770833,29.4519,-93.4333,0107,-12.61,-3.15,13.0000,256.0000
1981-11-23 07:00:00 UTC,2444931.791667,29.4519,-93.4333,0107,-11.69,-2.70,12.0000,257.0000
1981-11-23 07:30:00 UTC,2444931.812500,29.4519,-93.4333,0107,-11.64,-2.90,12.0000,256.0000
1981-11-23 08:00:00 UTC,2444931.833333,29.4519,-93.4333,0107,-11.59,-3.11,12.0000,255.0000
1981-11-23 08:30:00 UTC,2444931.854167,29.4519,-93.4333,0107,-11.64,-2.90,12.0000,256.0000
1981-11-23 09:00:00 UTC,2444931.875000,29.4519,-93.4333,0107,-9.56,-2.92,10.0000,253.0000
1981-11-23 09:30:00 UTC,2444931.895833,29.4519,-93.4333,0107,-6.93,-4.00,8.0000,240.0000
1981-11-23 10:00:00 UTC,2444931.916667,29.4519,-93.4333,0107,-5.80,-3.91,7.0000,236.0000
1981-11-23 10:30:00 UTC,2444931.937500,29.4519,-93.4333,0107,-8.28,-3.52,9.0000,247.0000
1981-11-23 11:00:00 UTC,2444931.958333,29.4519,-93.4333,0107,-10.40,-3.58,11.0000,251.0000
1981-11-23 11:30:00 UTC,2444931.979167,29.4519,-93.4333,0107,-11.59,-3.11,12.0000,255.0000
1981-11-23 12:00:00 UTC,2444932.000000,29.4519,-93.4333,0107,-10.80,-2.10,11.0000,259.0000
1981-11-23 12:30:00 UTC,2444932.020833,29.4519,-93.4333,0107,-10.89,-1.53,11.0000,262.0000
1981-11-23 13:00:00 UTC,2444932.041667,29.4519,-93.4333,0107,-8.97,-0.78,9.0000,265.0000
1981-11-23 13:30:00 UTC,2444932.062500,29.4519,-93.4333,0107,-8.73,-2.18,9.0000,256.0000
1981-11-23 14:00:00 UTC,2444932.083333,29.4519,-93.4333,0107,-10.05,-4.47,11.0000,246.0000
1981-11-23 14:30:00 UTC,2444932.104167,29.4519,-93.4333,0107,-10.79,-5.26,12.0000,244.0000
1981-11-23 15:00:00 UTC,2444932.125000,29.4519,-93.4333,0107,-11.35,-3.91,12.0000,251.0000
1981-11-23 15:30:00 UTC,2444932.145833,29.4519,-93.4333,0107,-13.92,-1.46,14.0000,264.0000
1981-11-23 16:00:00 UTC,2444932.166667,29.4519,-93.4333,0107,-14.98,0.78,15.0000,273.0000
1981-11-23 16:30:00 UTC,2444932.187500,29.4519,-93.4333,0107,-12.87,1.81,13.0000,278.0000
1981-11-23 17:00:00 UTC,2444932.208333,29.4519,-93.4333,0107,-11.74,2.49,12.0000,282.0000
1981-11-23 17:30:00 UTC,2444932.229167,29.4519,-93.4333,0107,-11.64,2.90,12.0000,284.0000
1981-11-23 18:00:00 UTC,2444932.250000,29.4519,-93.4333,0107,-10.76,2.29,11.0000,282.0000
1981-11-23 18:30:00 UTC,2444932.270833,29.4519,-93.4333,0107,-10.76,2.29,11.0000,282.0000
1981-11-23 19:00:00 UTC,2444932.291667,29.4519,-93.4333,0107,-10.40,3.58,11.0000,289.0000
1981-11-23 19:30:00 UTC,2444932.312500,29.4519,-93.4333,0107,-8.40,3.23,9.0000,291.0000
1981-11-23 20:00:00 UTC,2444932.333333,29.4519,-93.4333,0107,-7.94,0.97,8.0000,277.0000
1981-11-23 20:30:00 UTC,2444932.354167,29.4519,-93.4333,0107,-7.85,-1.53,8.0000,259.0000
1981-11-23 21:00:00 UTC,2444932.375000,29.4519,-93.4333,0107,-7.25,-3.38,8.0000,245.0000
1981-11-23 21:30:00 UTC,2444932.395833,29.4519,-93.4333,0107,-6.71,-4.36,8.0000,237.0000
1981-11-23 22:00:00 UTC,2444932.416667,29.4519,-93.4333,0107,-7.37,-5.16,9.0000,235.0000
1981-11-23 22:30:00 UTC,2444932.437500,29.4519,-93.4333,0107,-7.28,-5.29,9.0000,234.0000
1981-11-23 23:00:00 UTC,2444932.458333,29.4519,-93.4333,0107,-7.37,-5.16,9.0000,235.0000
1981-11-23 23:30:00 UTC,2444932.479167,29.4519,-93.4333,0107,-5.87,-3.81,7.0000,237.0000
1981-11-24 00:00:00 UTC,2444932.500000,29.4519,-93.4333,0107,-4.33,-2.50,5.0000,240.0000
1981-11-24 00:30:00 UTC,2444932.520833,29.4519,-93.4333,0107,-3.63,-1.69,4.0000,245.0000
1981-11-24 01:00:00 UTC,2444932.541667,29.4519,-93.4333,0107,-2.94,-0.57,3.0000,259.0000
1981-11-24 01:30:00 UTC,2444932.562500,29.4519,-93.4333,0107,-3.95,0.63,4.0000,279.0000
1981-11-24 02:00:00 UTC,2444932.583333,29.4519,-93.4333,0107,-3.50,1.94,4.0000,299.0000
1981-11-24 02:30:00 UTC,2444932.604167,29.4519,-93.4333,0107,-3.66,3.41,5.0000,313.0000
1981-11-24 03:00:00 UTC,2444932.625000,29.4519,-93.4333,0107,-3.47,3.60,5.0000,316.0000
1981-11-24 03:30:00 UTC,2444932.645833,29.4519,-93.4333,0107,-3.89,3.15,5.0000,309.0000
1981-11-24 04:00:00 UTC,2444932.666667,29.4519,-93.4333,0107,-3.50,1.94,4.0000,299.0000
1981-11-24 04:30:00 UTC,2444932.687500,29.4519,-93.4333,0107,-3.68,1.56,4.0000,293.0000
1981-11-24 05:00:00 UTC,2444932.708333,29.4519,-93.4333,0107,-3.76,1.37,4.0000,290.0000
1981-11-24 05:30:00 UTC,2444932.729167,29.4519,-93.4333,0107,-3.85,1.10,4.0000,286.0000
1981-11-24 06:00:00 UTC,2444932.750000,29.4519,-93.4333,0107,-2.99,0.26,3.0000,275.0000
1981-11-24 06:30:00 UTC,2444932.770833,29.4519,-93.4333,0107,-2.94,-0.57,3.0000,259.0000
1981-11-24 07:00:00 UTC,2444932.791667,29.4519,-93.4333,0107,-2.54,-1.59,3.0000,238.0000